Location: Arroyo de Valdeoliva
(40.1604°N, 4.9878°W)
Time: 12:19:04
(UTC+00:00)

ARIANE 6 FM1 Upper Stage - Pass Details

Date: 17 February 2026
Orbit: 523 x 607 km, 62.0° (Epoch: 8 March)

Event Time Altitude Azimuth Distance (km) Brightness Sun altitude
Rises 19:16:05 0° 328° (NNW) 2,657 6.5 -15.6°
Reaches altitude 10° 19:18:19 10° 334° (NNW) 1,766 5.5 -16.0°
Maximum altitude 19:22:10 49° 50° (NE) 689 2.7 -16.7°
Enters shadow 19:23:18 37° 98° (E) 839 3.0 -16.9°
